Location: Barrio de Canyet
(41.4665°N, 2.2381°E)
Time: 00:48:32
(UTC+00:00)

Resurs 01 Rocket - Pass Details

Date: 09 April 2020
Orbit: 634 x 644 km, 98.0° (Epoch: 05 June)

Event Time Altitude Azimuth Distance (km) Brightness Sun altitude
Exits shadow 19:17:42 13° 100° (E) 1,804 3.3 -10.2°
Maximum altitude 19:19:53 19° 65° (ENE) 1,536 3.2 -10.6°
Drops below altitude 10° 19:22:56 10° 21° (NNE) 2,033 4.2 -11.2°
Sets 19:25:41 0° 4° (N) 2,948 5.3 -11.6°
